TimeCDT,TemperatureF,Dew PointF,Humidity,Sea Level PressureIn,VisibilityMPH,Wind Direction,Wind SpeedMPH,Gust SpeedMPH,PrecipitationIn,Events,Conditions,WindDirDegrees,DateUTC
12:15 AM,51.8,44.6,76,30.00,10.0,South,6.9,-,N/A,,Clear,190,2013-09-30 05:15:00
12:35 AM,51.8,44.6,76,29.99,10.0,South,6.9,-,N/A,,Clear,180,2013-09-30 05:35:00
12:55 AM,51.8,44.6,76,29.99,10.0,South,8.1,-,N/A,,Clear,190,2013-09-30 05:55:00
1:15 AM,51.8,42.8,71,29.99,10.0,South,6.9,-,N/A,,Clear,180,2013-09-30 06:15:00
1:35 AM,51.8,42.8,71,29.99,10.0,South,6.9,-,N/A,,Clear,190,2013-09-30 06:35:00
1:55 AM,51.8,41.0,67,29.99,10.0,South,6.9,-,N/A,,Clear,190,2013-09-30 06:55:00
2:15 AM,51.8,41.0,67,29.99,10.0,SSW,8.1,-,N/A,,Clear,200,2013-09-30 07:15:00
2:35 AM,51.8,41.0,67,29.99,10.0,SSW,8.1,-,N/A,,Clear,200,2013-09-30 07:35:00
2:55 AM,51.8,41.0,67,29.98,10.0,South,6.9,-,N/A,,Clear,190,2013-09-30 07:55:00
3:15 AM,51.8,41.0,67,29.98,10.0,South,8.1,-,N/A,,Clear,190,2013-09-30 08:15:00
3:35 AM,51.8,42.8,71,29.98,10.0,South,8.1,-,N/A,,Clear,190,2013-09-30 08:35:00
3:55 AM,51.8,42.8,71,29.97,10.0,South,6.9,-,N/A,,Clear,190,2013-09-30 08:55:00
4:15 AM,51.8,42.8,71,29.98,10.0,SSW,6.9,-,N/A,,Clear,200,2013-09-30 09:15:00
4:35 AM,50.0,42.8,76,29.98,10.0,SSW,8.1,-,N/A,,Clear,200,2013-09-30 09:35:00
4:55 AM,51.8,42.8,71,29.98,10.0,SSW,8.1,-,N/A,,Clear,200,2013-09-30 09:55:00
5:15 AM,51.8,42.8,71,29.98,10.0,SSW,9.2,-,N/A,,Clear,200,2013-09-30 10:15:00
5:35 AM,51.8,41.0,67,29.98,10.0,SSW,8.1,-,N/A,,Clear,200,2013-09-30 10:35:00
5:55 AM,51.8,39.2,62,29.98,10.0,South,8.1,-,N/A,,Clear,190,2013-09-30 10:55:00
6:15 AM,51.8,39.2,62,29.98,10.0,South,8.1,-,N/A,,Clear,180,2013-09-30 11:15:00
6:35 AM,51.8,37.4,58,29.97,10.0,South,8.1,-,N/A,,Clear,180,2013-09-30 11:35:00
6:55 AM,51.8,37.4,58,29.96,10.0,South,9.2,-,N/A,,Clear,180,2013-09-30 11:55:00
7:15 AM,53.6,37.4,54,29.96,10.0,South,10.4,-,N/A,,Clear,180,2013-09-30 12:15:00
7:35 AM,55.4,37.4,51,29.96,10.0,South,9.2,-,N/A,,Clear,190,2013-09-30 12:35:00
7:55 AM,55.4,37.4,51,29.96,10.0,South,10.4,-,N/A,,Clear,180,2013-09-30 12:55:00
8:15 AM,57.2,39.2,51,29.95,10.0,South,12.7,-,N/A,,Clear,180,2013-09-30 13:15:00
8:35 AM,57.2,39.2,51,29.95,10.0,South,13.8,-,N/A,,Clear,180,2013-09-30 13:35:00
8:55 AM,57.2,39.2,51,29.95,10.0,South,10.4,-,N/A,,Clear,180,2013-09-30 13:55:00
9:15 AM,59.0,42.8,55,29.96,10.0,South,10.4,-,N/A,,Clear,190,2013-09-30 14:15:00
9:35 AM,59.0,42.8,55,29.95,10.0,South,9.2,-,N/A,,Clear,190,2013-09-30 14:35:00
9:55 AM,60.8,44.6,55,29.95,10.0,South,10.4,-,N/A,,Clear,190,2013-09-30 14:55:00
10:15 AM,62.6,44.6,52,29.94,10.0,South,13.8,19.6,N/A,,Clear,190,2013-09-30 15:15:00
10:35 AM,62.6,44.6,52,29.93,10.0,South,13.8,18.4,N/A,,Clear,180,2013-09-30 15:35:00
10:55 AM,64.4,44.6,49,29.93,10.0,South,11.5,16.1,N/A,,Clear,190,2013-09-30 15:55:00
11:15 AM,64.4,44.6,49,29.94,10.0,South,13.8,-,N/A,,Clear,190,2013-09-30 16:15:00
11:35 AM,66.2,46.4,49,29.93,10.0,SSW,12.7,-,N/A,,Clear,200,2013-09-30 16:35:00
11:55 AM,66.2,48.2,52,29.92,10.0,South,12.7,-,N/A,,Clear,170,2013-09-30 16:55:00
12:15 PM,66.2,48.2,52,29.92,10.0,SSW,10.4,16.1,N/A,,Clear,200,2013-09-30 17:15:00
12:35 PM,66.2,50.0,56,29.92,10.0,South,15.0,18.4,N/A,,Clear,170,2013-09-30 17:35:00
12:55 PM,66.2,48.2,52,29.91,10.0,South,15.0,18.4,N/A,,Clear,170,2013-09-30 17:55:00
1:15 PM,66.2,48.2,52,29.89,10.0,South,18.4,21.9,N/A,,Clear,170,2013-09-30 18:15:00
1:35 PM,66.2,48.2,52,29.89,10.0,South,12.7,19.6,N/A,,Clear,180,2013-09-30 18:35:00
1:55 PM,66.2,48.2,52,29.89,10.0,South,11.5,19.6,N/A,,Clear,180,2013-09-30 18:55:00
2:15 PM,66.2,46.4,49,29.87,10.0,South,17.3,21.9,N/A,,Clear,170,2013-09-30 19:15:00
2:35 PM,64.4,44.6,49,29.87,10.0,South,19.6,25.3,N/A,,Clear,180,2013-09-30 19:35:00
2:55 PM,64.4,44.6,49,29.86,10.0,South,16.1,-,N/A,,Clear,180,2013-09-30 19:55:00
3:15 PM,64.4,44.6,49,29.86,10.0,South,17.3,20.7,N/A,,Clear,170,2013-09-30 20:15:00
3:35 PM,64.4,44.6,49,29.86,10.0,South,15.0,-,N/A,,Clear,180,2013-09-30 20:35:00
3:55 PM,64.4,44.6,49,29.85,10.0,South,13.8,21.9,N/A,,Clear,180,2013-09-30 20:55:00
4:15 PM,64.4,44.6,49,29.85,10.0,South,13.8,25.3,N/A,,Clear,170,2013-09-30 21:15:00
4:35 PM,62.6,44.6,52,29.84,10.0,South,15.0,21.9,N/A,,Clear,170,2013-09-30 21:35:00
4:55 PM,62.6,46.4,55,29.83,10.0,South,19.6,24.2,N/A,,Clear,170,2013-09-30 21:55:00
5:15 PM,62.6,44.6,52,29.83,10.0,South,17.3,26.5,N/A,,Clear,170,2013-09-30 22:15:00
5:35 PM,62.6,46.4,55,29.83,10.0,South,15.0,21.9,N/A,,Clear,170,2013-09-30 22:35:00
5:55 PM,60.8,48.2,63,29.83,10.0,South,15.0,21.9,N/A,,Clear,170,2013-09-30 22:55:00
6:15 PM,60.8,48.2,63,29.83,10.0,South,15.0,21.9,N/A,,Clear,170,2013-09-30 23:15:00
6:35 PM,59.0,50.0,72,29.82,10.0,South,17.3,23.0,N/A,,Clear,170,2013-09-30 23:35:00
6:55 PM,59.0,51.8,77,29.82,10.0,South,15.0,24.2,N/A,,Clear,170,2013-09-30 23:55:00
7:15 PM,59.0,51.8,77,29.82,10.0,South,13.8,23.0,N/A,,Clear,170,2013-10-01 00:15:00
7:35 PM,59.0,51.8,77,29.82,10.0,South,15.0,20.7,N/A,,Clear,180,2013-10-01 00:35:00
7:55 PM,59.0,51.8,77,29.82,10.0,South,13.8,20.7,N/A,,Clear,180,2013-10-01 00:55:00
8:15 PM,59.0,51.8,77,29.83,10.0,South,12.7,19.6,N/A,,Clear,180,2013-10-01 01:15:00
8:35 PM,59.0,51.8,77,29.83,10.0,South,13.8,19.6,N/A,,Clear,180,2013-10-01 01:35:00
8:55 PM,57.2,51.8,82,29.83,10.0,South,12.7,-,N/A,,Clear,180,2013-10-01 01:55:00
9:15 PM,59.0,51.8,77,29.82,10.0,South,12.7,17.3,N/A,,Clear,180,2013-10-01 02:15:00
9:35 PM,59.0,51.8,77,29.83,10.0,South,15.0,-,N/A,,Clear,180,2013-10-01 02:35:00
9:55 PM,59.0,51.8,77,29.83,10.0,South,10.4,-,N/A,,Clear,180,2013-10-01 02:55:00
10:15 PM,59.0,51.8,77,29.83,10.0,South,12.7,-,N/A,,Clear,180,2013-10-01 03:15:00
10:35 PM,59.0,51.8,77,29.83,10.0,South,10.4,-,N/A,,Clear,190,2013-10-01 03:35:00
10:55 PM,59.0,53.6,82,29.83,10.0,South,11.5,-,N/A,,Clear,190,2013-10-01 03:55:00
11:15 PM,59.0,51.8,77,29.84,10.0,South,10.4,-,N/A,,Clear,190,2013-10-01 04:15:00
11:35 PM,59.0,51.8,77,29.83,10.0,South,10.4,-,N/A,,Clear,190,2013-10-01 04:35:00
11:55 PM,59.0,51.8,77,29.83,10.0,South,10.4,-,N/A,,Clear,190,2013-10-01 04:55:00